Вернуться в каталог

CZ-4C DEB

АктивенPO
NORAD 38295·DEBRIS·🇨🇳 China

Запущен Nov 4, 2010 с Taiyuan Satellite Launch Center

Loading…

Ближайшие Пролёты (ближайшие 24 часа)

TLE

СвежийSource: Space-Track

Эпоха: Sep 14, 2026, 09:29 UTC

1 38295U 10059E   26257.39535976  .00000224  00000-0  22769-3 0  9998
2 38295  98.6438  85.9082 0267261 315.8549 160.4542 13.71476856680709

Отслеживайте CZ-4C DEB в реальном времени с AllMySat

Download on the App Store